| time (UTC) | temp C | wind direction | speed KPH | gust KPH | rain 1hr cm | rain 24hr cm | rain mn cm | humidity % | barometer mb |
| 20260503194209 | 17 | 262 | 3.2 | 4.8 | 0.00 | 0.00 | 0.00 | 56 | 1013.0 |
| 20260503193705 | 17 | 262 | 3.2 | 4.8 | 0.00 | 0.00 | 0.00 | 56 | 1013.0 |
| 20260503193201 | 17 | 328 | 0.0 | 1.6 | 0.00 | 0.00 | 0.00 | 56 | 1013.2 |
| 20260503192657 | 17 | 328 | 0.0 | 1.6 | 0.00 | 0.00 | 0.00 | 56 | 1013.3 |
| 20260503192152 | -17 | 0.0 | 0.0 | 0.00 | 0.00 | 0.00 | 1013.5 | ||
| 20260503191650 | -17 | 0.0 | 0.0 | 0.00 | 0.00 | 0.00 | 1013.2 | ||
| 20260503191147 | -17 | 0.0 | 0.0 | 0.00 | 0.00 | 0.00 | 1013.2 | ||
| 20260503190643 | -17 | 0.0 | 0.0 | 0.00 | 0.00 | 0.00 | 1013.2 | ||
| 20260503190140 | -17 | 0.0 | 0.0 | 0.00 | 0.00 | 0.00 | 1013.1 | ||
| 20260503185637 | -17 | 0.0 | 0.0 | 0.00 | 0.00 | 0.00 | 1013.5 | ||
| 20260503185132 | 16 | 339 | 3.2 | 3.2 | 0.00 | 0.00 | 0.00 | 64 | 1013.5 |
| 20260503184627 | 16 | 339 | 3.2 | 3.2 | 0.00 | 0.00 | 0.00 | 64 | 1013.3 |
| 20260503184124 | 16 | 272 | 3.2 | 3.2 | 0.00 | 0.00 | 0.00 | 63 | 1013.1 |
| 20260503183620 | -17 | 0.0 | 0.0 | 0.00 | 0.00 | 0.00 | 1013.3 | ||
| 20260503183118 | -17 | 0.0 | 0.0 | 0.00 | 0.00 | 0.00 | 1013.5 | ||
| 20260503182616 | -17 | 0.0 | 0.0 | 0.00 | 0.00 | 0.00 | 1013.6 | ||
| 20260503182115 | -17 | 0.0 | 0.0 | 0.00 | 0.00 | 0.00 | 1013.7 | ||
| 20260503181611 | -17 | 0.0 | 0.0 | 0.00 | 0.00 | 0.00 | 1013.6 | ||
| 20260503181108 | 15 | 337 | 0.0 | 0.0 | 0.00 | 0.00 | 0.00 | 68 | 1013.5 |
| 20260503180605 | 15 | 337 | 0.0 | 0.0 | 0.00 | 0.00 | 0.00 | 68 | 1013.6 |
| 20260503180103 | 15 | 337 | 3.2 | 3.2 | 0.00 | 0.00 | 0.00 | 67 | 1013.7 |
| 20260503175559 | 15 | 38 | 1.6 | 3.2 | 0.00 | 0.00 | 0.00 | 71 | 1013.7 |
| 20260503175056 | 15 | 38 | 1.6 | 3.2 | 0.00 | 0.00 | 0.00 | 71 | 1013.6 |
| 20260503174553 | 15 | 326 | 1.6 | 1.6 | 0.00 | 0.00 | 0.00 | 74 | 1013.5 |
| 20260503174049 | 15 | 326 | 1.6 | 1.6 | 0.00 | 0.00 | 0.00 | 74 | 1013.6 |
| 20260503173544 | 13 | 324 | 1.6 | 1.6 | 0.00 | 0.00 | 0.00 | 78 | 1013.7 |
| 20260503173041 | 13 | 324 | 1.6 | 1.6 | 0.00 | 0.00 | 0.00 | 78 | 1013.7 |
| 20260503172539 | -17 | 0.0 | 0.0 | 0.00 | 0.00 | 0.00 | 1013.3 | ||
| 20260503172036 | -17 | 0.0 | 0.0 | 0.00 | 0.00 | 0.00 | 1013.3 | ||
| 20260503171532 | -17 | 0.0 | 0.0 | 0.00 | 0.00 | 0.00 | 1013.5 | ||
| 20260503171030 | -17 | 0.0 | 0.0 | 0.00 | 0.00 | 0.00 | 1013.5 | ||
| 20260503170526 | -17 | 0.0 | 0.0 | 0.00 | 0.00 | 0.00 | 1013.5 | ||
| 20260503150918 | -17 | 0.0 | 0.0 | 0.00 | 0.00 | 0.00 | 1012.8 | ||
| 20260503150415 | 13 | 340 | 0.0 | 0.0 | 0.00 | 0.00 | 0.00 | 78 | 1012.9 |
| 20260503131308 | 11 | 352 | 0.0 | 1.6 | 0.00 | 0.00 | 0.00 | 87 | 1011.5 |
| 20260503130805 | 11 | 351 | 0.0 | 0.0 | 0.00 | 0.00 | 0.00 | 87 | 1011.5 |
| 20260503130303 | 11 | 358 | 0.0 | 1.6 | 0.00 | 0.00 | 0.00 | 87 | 1011.6 |
| 20260503110656 | 12 | 347 | 0.0 | 0.0 | 0.00 | 0.00 | 0.00 | 84 | 1011.4 |
| 20260503110154 | 12 | 347 | 0.0 | 0.0 | 0.00 | 0.00 | 0.00 | 84 | 1011.4 |
| 20260503100120 | 12 | 319 | 1.6 | 1.6 | 0.00 | 0.00 | 0.00 | 81 | 1011.3 |
| 20260503081504 | 12 | 343 | 0.0 | 1.6 | 0.00 | 0.00 | 0.00 | 79 | 1012.0 |
| 20260503081001 | 12 | 344 | 0.0 | 0.0 | 0.00 | 0.00 | 0.00 | 80 | 1012.0 |
| 20260503080457 | 12 | 344 | 0.0 | 0.0 | 0.00 | 0.00 | 0.00 | 81 | 1012.0 |
| 20260503072933 | 12 | 346 | 0.0 | 0.0 | 0.00 | 0.00 | 0.00 | 79 | 1012.0 |
| 20260503072431 | 12 | 355 | 0.0 | 0.0 | 0.00 | 0.00 | 0.00 | 79 | 1012.3 |
| 20260503071928 | 12 | 341 | 0.0 | 0.0 | 0.00 | 0.00 | 0.00 | 80 | 1012.4 |
| 20260503071425 | 12 | 341 | 0.0 | 0.0 | 0.00 | 0.00 | 0.00 | 80 | 1012.3 |
| 20260503070921 | 12 | 340 | 0.0 | 0.0 | 0.00 | 0.00 | 0.00 | 80 | 1012.5 |
| 20260503070419 | 12 | 340 | 0.0 | 0.0 | 0.00 | 0.00 | 0.00 | 80 | 1012.2 |
| 20260503054832 | -17 | 0.0 | 0.0 | 0.00 | 0.00 | 0.00 | 1012.4 | ||
| 20260503054327 | 12 | 7 | 1.6 | 3.2 | 0.00 | 0.00 | 0.00 | 79 | 1012.5 |
| 20260503053825 | 12 | 7 | 1.6 | 3.2 | 0.00 | 0.00 | 0.00 | 79 | 1012.6 |
| 20260503053324 | 12 | 6 | 3.2 | 4.8 | 0.00 | 0.00 | 0.00 | 79 | 1012.6 |
| 20260503052819 | 12 | 6 | 3.2 | 4.8 | 0.00 | 0.00 | 0.00 | 79 | 1012.4 |
| 20260503052317 | 12 | 1 | 0.0 | 0.0 | 0.00 | 0.00 | 0.00 | 79 | 1012.5 |
| 20260503051813 | 12 | 5 | 1.6 | 1.6 | 0.00 | 0.00 | 0.00 | 79 | 1012.6 |
| 20260503051309 | 12 | 8 | 4.8 | 4.8 | 0.00 | 0.00 | 0.00 | 79 | 1012.8 |
| 20260503050806 | 13 | 0 | 1.6 | 1.6 | 0.00 | 0.00 | 0.00 | 78 | 1012.9 |
| 20260503050302 | 13 | 317 | 1.6 | 1.6 | 0.00 | 0.00 | 0.00 | 78 | 1012.8 |
| 20260503045800 | 12 | 356 | 0.0 | 0.0 | 0.00 | 0.00 | 0.00 | 78 | 1012.6 |
| 20260503045258 | 12 | 3 | 1.6 | 1.6 | 0.00 | 0.00 | 0.00 | 78 | 1012.6 |
| 20260503044753 | 13 | 4 | 4.8 | 4.8 | 0.00 | 0.00 | 0.00 | 77 | 1012.5 |
| 20260503044251 | 13 | 337 | 1.6 | 1.6 | 0.00 | 0.00 | 0.00 | 78 | 1012.5 |
| 20260503043748 | 13 | 337 | 1.6 | 1.6 | 0.00 | 0.00 | 0.00 | 78 | 1012.4 |
| 20260503043245 | -17 | 0.0 | 0.0 | 0.00 | 0.00 | 0.00 | 1012.6 | ||
| 20260503042741 | 13 | 9 | 1.6 | 3.2 | 0.00 | 0.00 | 0.00 | 77 | 1012.3 |
| 20260503042238 | 13 | 9 | 1.6 | 3.2 | 0.00 | 0.00 | 0.00 | 77 | 1012.3 |
| 20260503041733 | 13 | 1 | 0.0 | 0.0 | 0.00 | 0.00 | 0.00 | 77 | 1012.4 |
| 20260503041232 | 13 | 315 | 1.6 | 3.2 | 0.00 | 0.00 | 0.00 | 77 | 1012.3 |
| 20260503040730 | 13 | 315 | 1.6 | 3.2 | 0.00 | 0.00 | 0.00 | 77 | 1012.3 |
| 20260503040227 | 13 | 352 | 1.6 | 3.2 | 0.00 | 0.00 | 0.00 | 76 | 1012.3 |
| 20260503035724 | 13 | 323 | 4.8 | 4.8 | 0.00 | 0.00 | 0.00 | 76 | 1012.2 |
| 20260503035221 | 13 | 323 | 4.8 | 4.8 | 0.00 | 0.00 | 0.00 | 76 | 1012.1 |
| 20260503034718 | 13 | 355 | 1.6 | 1.6 | 0.00 | 0.00 | 0.00 | 76 | 1012.1 |
| 20260503034215 | 13 | 347 | 1.6 | 1.6 | 0.00 | 0.00 | 0.00 | 76 | 1012.0 |
| 20260503033713 | 13 | 359 | 3.2 | 3.2 | 0.00 | 0.00 | 0.00 | 76 | 1011.8 |
| 20260503033210 | 13 | 2 | 6.4 | 8.0 | 0.00 | 0.00 | 0.00 | 76 | 1011.7 |
| 20260503032708 | 13 | 9 | 4.8 | 4.8 | 0.00 | 0.00 | 0.00 | 77 | 1011.8 |
| 20260503032206 | 13 | 358 | 3.2 | 3.2 | 0.00 | 0.00 | 0.00 | 78 | 1011.7 |
| 20260503031703 | 13 | 358 | 3.2 | 3.2 | 0.00 | 0.00 | 0.00 | 78 | 1011.7 |
| 20260503031201 | 13 | 25 | 3.2 | 3.2 | 0.00 | 0.00 | 0.00 | 78 | 1011.8 |
| 20260503030657 | 13 | 25 | 3.2 | 3.2 | 0.00 | 0.00 | 0.00 | 78 | 1011.8 |
| 20260503030154 | 13 | 23 | 3.2 | 4.8 | 0.00 | 0.00 | 0.00 | 78 | 1011.6 |
| 20260503025651 | 13 | 4 | 4.8 | 4.8 | 0.00 | 0.00 | 0.00 | 78 | 1011.6 |
| 20260503025149 | 14 | 18 | 1.6 | 3.2 | 0.00 | 0.00 | 0.00 | 76 | 1011.7 |
| 20260503024644 | 14 | 298 | 4.8 | 8.0 | 0.00 | 0.00 | 0.00 | 76 | 1011.3 |
| 20260503024142 | 14 | 1 | 4.8 | 4.8 | 0.00 | 0.00 | 0.00 | 76 | 1011.4 |
| 20260503023639 | 14 | 346 | 4.8 | 4.8 | 0.00 | 0.00 | 0.00 | 75 | 1011.3 |
| 20260503023136 | 14 | 8 | 1.6 | 1.6 | 0.00 | 0.00 | 0.00 | 76 | 1011.3 |
| 20260503022632 | 15 | 10 | 4.8 | 4.8 | 0.00 | 0.00 | 0.00 | 76 | 1011.3 |
| 20260503022131 | 15 | 10 | 4.8 | 4.8 | 0.00 | 0.00 | 0.00 | 76 | 1011.2 |
| 20260503021629 | 15 | 4 | 1.6 | 1.6 | 0.00 | 0.00 | 0.00 | 76 | 1011.2 |
| 20260503021125 | 15 | 359 | 4.8 | 8.0 | 0.00 | 0.00 | 0.00 | 76 | 1011.3 |
| 20260503020622 | 15 | 6 | 3.2 | 3.2 | 0.00 | 0.00 | 0.00 | 76 | 1011.2 |
| 20260503020120 | 15 | 6 | 3.2 | 3.2 | 0.00 | 0.00 | 0.00 | 76 | 1011.3 |
| 20260503015616 | 15 | 13 | 4.8 | 4.8 | 0.00 | 0.00 | 0.00 | 74 | 1011.2 |
| 20260503015113 | 15 | 13 | 4.8 | 4.8 | 0.00 | 0.00 | 0.00 | 74 | 1011.0 |
| 20260503014609 | 15 | 31 | 1.6 | 3.2 | 0.00 | 0.00 | 0.00 | 75 | 1011.3 |
| 20260503014107 | 15 | 318 | 4.8 | 4.8 | 0.00 | 0.00 | 0.00 | 75 | 1011.4 |
| 20260503013604 | 15 | 346 | 1.6 | 1.6 | 0.00 | 0.00 | 0.00 | 74 | 1011.2 |
| 20260503013102 | 15 | 346 | 1.6 | 1.6 | 0.00 | 0.00 | 0.00 | 74 | 1011.3 |
| 20260503012559 | 16 | 354 | 4.8 | 4.8 | 0.00 | 0.00 | 0.00 | 73 | 1011.4 |
| 20260503012055 | 16 | 20 | 4.8 | 4.8 | 0.00 | 0.00 | 0.00 | 73 | 1011.3 |
| 20260503011552 | 16 | 20 | 4.8 | 4.8 | 0.00 | 0.00 | 0.00 | 73 | 1011.3 |
| 20260503011049 | 16 | 20 | 4.8 | 4.8 | 0.00 | 0.00 | 0.00 | 73 | 1011.4 |
| 20260503010545 | 16 | 359 | 3.2 | 3.2 | 0.00 | 0.00 | 0.00 | 72 | 1011.3 |
| 20260503010043 | 16 | 31 | 8.0 | 11.3 | 0.00 | 0.00 | 0.00 | 72 | 1011.3 |
| 20260503005540 | 16 | 21 | 4.8 | 9.7 | 0.00 | 0.00 | 0.00 | 72 | 1011.3 |
| 20260503005037 | 16 | 16 | 11.3 | 12.9 | 0.00 | 0.00 | 0.00 | 71 | 1011.2 |
| 20260503004533 | 16 | 350 | 3.2 | 4.8 | 0.00 | 0.00 | 0.00 | 70 | 1011.4 |
| 20260503004032 | 17 | 330 | 1.6 | 1.6 | 0.00 | 0.00 | 0.00 | 68 | 1011.3 |
| 20260503003528 | 17 | 346 | 8.0 | 11.3 | 0.00 | 0.00 | 0.00 | 68 | 1011.2 |
| 20260503003025 | 17 | 356 | 4.8 | 8.0 | 0.00 | 0.00 | 0.00 | 67 | 1011.0 |
| 20260503002522 | 18 | 349 | 3.2 | 3.2 | 0.00 | 0.00 | 0.00 | 66 | 1011.3 |
| 20260503002019 | 18 | 326 | 3.2 | 3.2 | 0.00 | 0.00 | 0.00 | 66 | 1011.2 |
| 20260503001515 | 18 | 358 | 1.6 | 3.2 | 0.00 | 0.00 | 0.00 | 67 | 1011.1 |
| 20260503001014 | 18 | 333 | 8.0 | 9.7 | 0.00 | 0.00 | 0.00 | 66 | 1011.3 |
| 20260503000511 | 18 | 321 | 4.8 | 4.8 | 0.00 | 0.00 | 0.00 | 66 | 1011.2 |
| 20260503000008 | 17 | 348 | 1.6 | 4.8 | 0.00 | 0.00 | 0.00 | 67 | 1011.2 |
| 20260502235504 | 18 | 7 | 6.4 | 9.7 | 0.00 | 0.00 | 0.00 | 65 | 1011.2 |
| 20260502235002 | 18 | 34 | 11.3 | 14.5 | 0.00 | 0.00 | 0.00 | 65 | 1011.1 |
| 20260502234458 | 18 | 19 | 4.8 | 8.0 | 0.00 | 0.00 | 0.00 | 64 | 1011.1 |
| 20260502233956 | 18 | 9 | 4.8 | 8.0 | 0.00 | 0.00 | 0.00 | 64 | 1011.0 |
| 20260502233455 | 20 | 349 | 3.2 | 3.2 | 0.00 | 0.00 | 0.00 | 63 | 1011.1 |
| 20260502232953 | 20 | 345 | 3.2 | 4.8 | 0.00 | 0.00 | 0.00 | 62 | 1011.4 |
| 20260502232449 | 19 | 283 | 3.2 | 3.2 | 0.00 | 0.00 | 0.00 | 63 | 1011.3 |
| 20260502231946 | 19 | 9 | 4.8 | 8.0 | 0.00 | 0.00 | 0.00 | 63 | 1011.3 |
| 20260502231443 | 20 | 297 | 3.2 | 4.8 | 0.00 | 0.00 | 0.00 | 60 | 1011.4 |
| 20260502230941 | 20 | 356 | 3.2 | 4.8 | 0.00 | 0.00 | 0.00 | 61 | 1011.3 |
| 20260502230439 | 20 | 347 | 1.6 | 3.2 | 0.00 | 0.00 | 0.00 | 62 | 1011.4 |
| 20260502225937 | 20 | 356 | 3.2 | 3.2 | 0.00 | 0.00 | 0.00 | 61 | 1011.4 |
| 20260502225433 | 20 | 323 | 1.6 | 3.2 | 0.00 | 0.00 | 0.00 | 62 | 1011.6 |
| 20260502224930 | 20 | 349 | 4.8 | 4.8 | 0.00 | 0.00 | 0.00 | 62 | 1011.6 |
| 20260502224426 | 20 | 349 | 4.8 | 4.8 | 0.00 | 0.00 | 0.00 | 62 | 1011.6 |
| 20260502223923 | 20 | 347 | 4.8 | 8.0 | 0.00 | 0.00 | 0.00 | 62 | 1011.8 |
| 20260502223421 | 20 | 327 | 4.8 | 4.8 | 0.00 | 0.00 | 0.00 | 61 | 1011.8 |
| 20260502222919 | 20 | 330 | 1.6 | 3.2 | 0.00 | 0.00 | 0.00 | 61 | 1011.9 |
| 20260502222416 | 20 | 337 | 4.8 | 4.8 | 0.00 | 0.00 | 0.00 | 61 | 1012.0 |
| 20260502221916 | 20 | 2 | 4.8 | 4.8 | 0.00 | 0.00 | 0.00 | 61 | 1012.2 |
| 20260502221413 | 20 | 2 | 4.8 | 4.8 | 0.00 | 0.00 | 0.00 | 61 | 1011.9 |
| 20260502220910 | 20 | 304 | 3.2 | 8.0 | 0.00 | 0.00 | 0.00 | 62 | 1012.2 |
| 20260502220406 | -17 | 0.0 | 0.0 | 0.00 | 0.00 | 0.00 | 1012.1 | ||
| 20260502215903 | -17 | 0.0 | 0.0 | 0.00 | 0.00 | 0.00 | 1012.2 | ||
| 20260502215401 | -17 | 0.0 | 0.0 | 0.00 | 0.00 | 0.00 | 1012.2 | ||
| 20260502214857 | -17 | 0.0 | 0.0 | 0.00 | 0.00 | 0.00 | 1012.3 | ||
| 20260502214354 | -17 | 0.0 | 0.0 | 0.00 | 0.00 | 0.00 | 1012.4 | ||
| 20260502213851 | -17 | 0.0 | 0.0 | 0.00 | 0.00 | 0.00 | 1012.3 | ||
| 20260502213348 | -17 | 0.0 | 0.0 | 0.00 | 0.00 | 0.00 | 1012.3 | ||
| 20260502212847 | -17 | 0.0 | 0.0 | 0.00 | 0.00 | 0.00 | 1012.3 | ||
| 20260502212345 | -17 | 0.0 | 0.0 | 0.00 | 0.00 | 0.00 | 1012.3 | ||
| 20260502211842 | -17 | 0.0 | 0.0 | 0.00 | 0.00 | 0.00 | 1012.6 | ||
| 20260502211337 | -17 | 0.0 | 0.0 | 0.00 | 0.00 | 0.00 | 1012.4 | ||
| 20260502210835 | -17 | 0.0 | 0.0 | 0.00 | 0.00 | 0.00 | 1012.6 | ||
| 20260502210332 | -17 | 0.0 | 0.0 | 0.00 | 0.00 | 0.00 | 1012.7 | ||
| 20260502205829 | -17 | 0.0 | 0.0 | 0.00 | 0.00 | 0.00 | 1012.6 | ||
| 20260502205325 | -17 | 0.0 | 0.0 | 0.00 | 0.00 | 0.00 | 1012.8 | ||
| 20260502204823 | -17 | 0.0 | 0.0 | 0.00 | 0.00 | 0.00 | 1012.9 | ||
| 20260502204320 | -17 | 0.0 | 0.0 | 0.00 | 0.00 | 0.00 | 1012.9 | ||
| 20260502203817 | -17 | 0.0 | 0.0 | 0.00 | 0.00 | 0.00 | 1013.1 | ||
| 20260502203315 | -17 | 0.0 | 0.0 | 0.00 | 0.00 | 0.00 | 1013.1 | ||
| 20260502202814 | -17 | 0.0 | 0.0 | 0.00 | 0.00 | 0.00 | 1013.0 | ||
| 20260502202313 | -17 | 0.0 | 0.0 | 0.00 | 0.00 | 0.00 | 1013.2 | ||
| 20260502201810 | -17 | 0.0 | 0.0 | 0.00 | 0.00 | 0.00 | 1013.5 | ||
| 20260502201306 | 19 | 322 | 3.2 | 3.2 | 0.00 | 0.00 | 0.00 | 64 | 1013.2 |
| 20260502200803 | 19 | 322 | 3.2 | 3.2 | 0.00 | 0.00 | 0.00 | 64 | 1013.8 |
| 20260502200258 | 18 | 337 | 4.8 | 4.8 | 0.00 | 0.00 | 0.00 | 64 | 1013.7 |
| 20260502195757 | 19 | 289 | 3.2 | 3.2 | 0.00 | 0.00 | 0.00 | 64 | 1013.8 |
| 20260502195253 | 18 | 346 | 1.6 | 1.6 | 0.00 | 0.00 | 0.00 | 65 | 1013.7 |
| 20260502194750 | 18 | 335 | 3.2 | 3.2 | 0.00 | 0.00 | 0.00 | 65 | 1013.7 |